User: anonymous   Login
Location: Sceptre
(50.8619°N, 109.2670°W)
Time: 01:49:56
(UTC+00:00)
Language:

KAITUO 1B - Orbit

View from above orbital plane
View from above orbital plane
View from above satellite
View from above satellite

Ground track
Ground track

The orbit data is extracted from the following two-line orbital elements,

1 40912U 15049P   22176.47810472  .00009915  00000-0  38470-3 0  9995
2 40912  97.4361 187.8405 0010661 274.4201 243.7469 15.26259183374972
Epoch (UTC): 25 June 2022 11:28:28
Eccentricity: 0.0010661
inclination: 97.4361°
perigee height: 479 km
apogee height: 494 km
right ascension of ascending node: 187.8405°
argument of perigee: 274.4201°
revolutions per day: 15.26259183
mean anomaly at epoch: 243.7469°
orbit number at epoch: 37497

The dashed part of the orbit path shows where the satellite is in the earth's shadow,  

DLR